Regional Weather Roundup
Issued by NWS

Home | Current Version | Previous Version | Text Only | Print | Product List | Glossary On
Versions: 1 2 3 4 5 6 7 8 9 10 11 12 13 14 15 16 17 18 19 20 21 22 23 24 25 26 27 28 29 30 31 32 33 34 35 36 37 38 39 40 41 42 43 44 45 46 47 48 49 50
000
ASUS44 KMEG 271210
RWRTN
TENNESSEE HOURLY STATE WEATHER ROUNDUP
NATIONAL WEATHER SERVICE MEMPHIS TN
600 AM CST MON FEB 27 2017

TNZ002-004-019-021-049-052-054-088>092-271300-
WEST TENNESSEE

CITY           SKY/WX    TMP DP  RH WIND       PRES   REMARKS
MEMPHIS INTL   CLOUDY    48  45  89 SE9       30.07R
NWS MEMPHIS      N/A     47 N/A N/A MISG        N/A
JACKSON        CLOUDY    49  44  83 S15G22    30.10F
UNION CITY     MOCLDY    46  46 100 CALM      30.09S
PARIS          CLEAR     45  43  93 S12       30.12S
HUNTINGDON     MOCLDY    50  45  81 S14G21    30.10F
$$

TNZ008-025-027-028-033-062-065-066-271300-
NORTH MIDDLE TENNESSEE

CITY           SKY/WX    TMP DP  RH WIND       PRES   REMARKS
NASHVILLE      CLOUDY    47  35  63 CALM      30.21S
PORTLAND       CLOUDY    46  45  93 S6        30.20S
CLARKSVILLE    LGT RAIN  46  42  86 CALM      30.14F
SMYRNA         CLOUDY    45  30  55 CALM      30.23R
COOKEVILLE     MOCLDY    46  27  46 SE5       30.21S
GALLATIN       CLOUDY    45  43  93 CALM      30.24R
CROSSVILLE     PTCLDY    41  24  51 CALM      30.24R
$$

TNZ061-075-076-078-094-096-097-271300-
SOUTH MIDDLE TENNESSEE

CITY           SKY/WX    TMP DP  RH WIND       PRES   REMARKS
FAYETTEVILLE   CLOUDY    46  30  53 N10       30.20R
TULLAHOMA      CLEAR     43  25  49 NE3       30.22R
WINCHESTER     CLEAR     48  28  46 CALM      30.21R
MCMINNVILLE    CLEAR     45  28  53 E3        30.23R
COLUMBIA       MOCLDY    46  34  61 CALM      30.19R
SHELBYVILLE    CLEAR     46  32  57 E7        30.22S
$$

TNZ017-018-042-046-047-271300-
NORTHEAST TENNESSEE

CITY           SKY/WX    TMP DP  RH WIND       PRES   REMARKS
TRI CITIES     MOCLDY    33  26  75 CALM      30.30R
ELIZABETHTON   CLOUDY    37  25  60 NE5       30.30R WCI  34
$$

TNZ012-013-036-069-073-074-271300-
CENTRAL EAST TENNESSEE

CITY           SKY/WX    TMP DP  RH WIND       PRES   REMARKS
KNOXVILLE      MOCLDY    37  25  61 NE5       30.25F WCI  33
OAK RIDGE      CLEAR     36  29  75 E3        30.29R
GATLINBURG     CLEAR     30  25  80 CALM      30.27S
MORRISTOWN     CLOUDY    39  21  48 CALM      30.26R
JACKSBORO      CLEAR     32  30  93 CALM      30.32R
$$

TNZ083-085-099-271300-
SOUTHEAST TENNESSEE

CITY           SKY/WX    TMP DP  RH WIND       PRES   REMARKS
CHATTANOOGA    MOCLDY    42  35  76 CALM      30.25R
$$

SKY/WX REPORTED AS FAIR MEANS FEW OR NO CLOUDS BELOW
12 THOUSAND FEET.





USA.gov is the U.S. government's official web portal to all federal, state and local government web resources and services.